Location: Arbon
(43.0005°N, 0.7472°E)
Time: 12:06:10
(UTC+00:00)

Okean O Rocket - Pass Details

Date: 22 April 2026
Orbit: 613 x 635 km, 98.0° (Epoch: 16 May)

Event Time Altitude Azimuth Distance (km) Brightness Sun altitude
Exits shadow 20:53:08 46° 174° (S) 838 1.9 -20.7°
Maximum altitude 20:54:23 83° 257° (WSW) 631 1.5 -20.8°
Drops below altitude 10° 20:58:44 10° 346° (NNW) 1,992 5.0 -21.4°
Sets 21:00:55 0° 347° (NNW) 2,899 5.9 -21.7°
